Regional Weather Roundup
Issued by NWS

Home | Current Version | Previous Version | Graphics & Text | Print | Product List | Glossary On
Versions: 1 2 3 4 5 6 7 8 9 10 11 12 13 14 15 16 17 18 19 20 21 22 23 24 25 26 27 28 29 30 31 32 33 34 35 36 37 38 39 40 41 42 43 44 45 46 47
000
ASUS45 KBOU 230507
RWRCO

WEATHER ROUNDUP FOR COLORADO
NATIONAL WEATHER SERVICE DENVER/BOULDER CO
1100 PM MDT MON SEP 22 2014

NOTE: "FAIR" INDICATES FEW OR NO CLOUDS BELOW 12000 FEET WITH NO
SIGNIFICANT WEATHER AND/OR OBSTRUCTIONS TO VISIBILITY.

COZ001>005-013-030-031-230600-
...NORTHWEST COLORADO...

CITY           SKY/WX    TMP DP  RH WIND       PRES   REMARKS
CRAIG          CLOUDY    57  47  69 CALM      30.24S
HAYDEN         MOCLDY    57  45  62 S5        30.25S
MEEKER         CLOUDY    56  50  80 NE5       30.26F
MOUNT WERNER   NOT AVBL
STEAMBOAT SPGS CLOUDY    52  49  90 SE8       30.27S
WALDEN         CLOUDY    46  45  93 SE6       30.32F
$$

COZ006>008-011-230600-
...WEST CENTRAL VALLEYS...

CITY           SKY/WX    TMP DP  RH WIND       PRES   REMARKS
GRAND JUNCTION MOCLDY    63  54  72 E3        30.15S
MONTROSE       PTCLDY    58  53  84 SE8       30.25R
EAGLE          CLOUDY    55  52  88 E5        30.30F
RIFLE          CLOUDY    59  51  75 E5        30.22R
DELTA          MOCLDY    63  55  74 NE5       30.20R
NUCLA          PTCLDY    59  50  72 E8        30.27S
$$

COZ017>023-064>068-230600-
...SOUTHWEST COLORADO...

CITY           SKY/WX    TMP DP  RH WIND       PRES   REMARKS
DURANGO        CLEAR     54  45  71 CALM      30.29R
CORTEZ         CLEAR     55  49  80 E5        30.25R
PAGOSA SPRINGS CLEAR     52  49  89 CALM      30.36S
TELLURIDE      NOT AVBL
WOLF CREEK PAS CLEAR     37  37 100 SW20G28   30.59S
$$

COZ009-010-012-014-032>034-037-058>063-230600-
...CENTRAL COLORADO...

CITY           SKY/WX    TMP DP  RH WIND       PRES   REMARKS
ASPEN          PTCLDY    49  45  86 SW5       30.35R
BUENA VISTA    PTCLDY    55  43  64 NW12      30.32S
COPPER MTN     PTCLDY    45  36  70 SW9G21    30.57S
BERTHOUD PASS  CLOUDY    36  34  93 NW22G35   30.56R
COTTONWOOD PAS PTCLDY    54  37  54 N5        30.42F
GUNNISON       CLEAR     52  43  71 CALM      30.37R
KREMMLING      CLOUDY    54  43  66 W8        30.32S
LEADVILLE      PTCLDY    47  39  74 N12       30.44S
MONARCH PASS   CLEAR     41  37  87 W36G45    30.64F
SALIDA         CLEAR     59  44  58 N5        30.37S
SUNLIGHT       MOCLDY    45  43  93 CALM      30.52S
WILKERSON PASS NOT AVBL
$$

COZ069>075-230600-
...SAN LUIS VALLEY/SANGRE DE CRISTO MOUNTAINS...

CITY           SKY/WX    TMP DP  RH WIND       PRES   REMARKS
ALAMOSA        CLEAR     51  43  74 SW7       30.31R
LA VETA PASS   CLEAR     46  43  87 S13G25    30.45R
SAGUACHE       CLEAR     52  45  76 N12       30.34S
$$

COZ035-036-038>040-230600-
...NORTHERN COLORADO FRONT RANGE...

CITY           SKY/WX    TMP DP  RH WIND       PRES   REMARKS
DENVER INTL AP PTCLDY    62  47  57 N8        30.15R
DMNS CITY PARK   N/A     61  51  70 W2        30.13S
AURORA         PTCLDY    59  51  72 S6        30.16R
FRONT RANGE AP PTCLDY    57  52  82 W6        30.16R
ERIE MUNI ARPT NOT AVBL
BOULDER MUN AP PTCLDY    63  41  45 E6        30.12S
CENTENNIAL     PTCLDY    58  52  80 S7        30.16S
BROOMFIELD     NOT AVBL
FORT COLLINS   PTCLDY    59  46  63 SE5       30.12S
LONGMONT       PTCLDY    63  44  50 CALM      30.13R
$$

COZ041-046-047-076>085-087-088-230600-
...PIKES PEAK/PALMER DIVIDE AND SOUTHERN FOOTHILLS...

CITY           SKY/WX    TMP DP  RH WIND       PRES   REMARKS
COLO. SPRINGS  CLEAR     58  49  72 N7        30.19S
A. F. ACADEMY  CLEAR     54  48  81 N10       30.22R
ELLICOTT       NOT AVBL
FALCON         CLEAR     58  48  71 N7        30.23S
FORT CARSON    CLEAR     59  51  73 NW12      30.16S
LIMON          CLOUDY    57  54  89 SE6       30.15R
MONUMENT HILL  PTCLDY    48  45  87 SW6       30.23S
TRINIDAD       CLEAR     65  54  67 SW16G22   30.17F
$$

COZ042>045-048>051-090-091-230600-
...NORTHEAST COLORADO...

CITY           SKY/WX    TMP DP  RH WIND       PRES   REMARKS
GREELEY ARPT   CLEAR     57  45  62 S3        30.10S
AKRON          MOCLDY    59  55  87 SW12      30.08R
BURLINGTON     TSTM      59  55  87 VRB5G17   30.16R FOG
WRAY           CLOUDY    60  56  88 E8        30.04F
STERLING       MOCLDY    63  59  88 NE5       30.05F
HOLYOKE        CLOUDY    61  57  88 SE3       30.06S
FORT MORGAN    MOCLDY    59  54  82 NE8       30.10R
$$

COZ086-089-092>099-230600-
...SOUTHEAST COLORADO...

CITY           SKY/WX    TMP DP  RH WIND       PRES   REMARKS
PUEBLO         CLEAR     65  56  72 SE6       30.08R
LA JUNTA       CLEAR     68  58  70 SW17      30.05S
LAMAR          CLEAR     69  59  70 S17       30.02F
SPRINGFIELD      N/A     63  60  90 S18G25    30.12F
$$



USA.gov is the U.S. government's official web portal to all federal, state and local government web resources and services.